Location: St. Louis
(38.6270°N, 90.1994°W)
Time: 17:18:49
(UTC-06:00)

Courier 1B - Pass Details

Date: 05 December 2021
Orbit: 962 x 1209 km, 28.3° (Epoch: 26 January)

Event Time Altitude Azimuth Distance (km) Brightness Sun altitude
Rises 19:30:00 0° 262° (W) 3,959 11.8 -32.6°
Reaches altitude 10° 19:33:15 10° 251° (WSW) 2,957 10.8 -33.2°
Maximum altitude 19:39:14 29° 195° (SSW) 1,848 9.0 -34.4°
Enters shadow 19:39:36 28° 190° (S) 1,849 9.0 -34.5°
